Regional Weather Roundup
Issued by NWS

Home | Current Version | Previous Version | Graphics & Text | Print | Product List | Glossary On
Versions: 1 2 3 4 5 6 7 8 9 10 11 12 13 14 15 16 17 18 19 20 21 22 23 24 25 26 27 28 29 30 31 32 33 34 35 36 37 38 39 40 41 42 43 44 45 46 47 48 49 50
000
ASUS43 KOAX 030902
RWRNE

WEATHER ROUNDUP FOR NEBRASKA
NATIONAL WEATHER SERVICE OMAHA NE
400 AM CDT FRI JUL 03 2015

NOTES: SATELLITE DATA IS BEING USED TO AUGMENT CLOUD COVER ABOVE
       12000 FEET.
       "FAIR" INDICATES FEW OR NO CLOUDS BELOW 12,000 FEET WITH NO
       SIGNIFICANT WEATHER AND/OR OBSTRUCTIONS TO VISIBILITY.

  * THESE STATIONS DO NOT REPORT WEATHER SUCH AS RAIN...SNOW OR FOG.

NEZ001>004-019>022-054>056-031000-
NEBRASKA PANHANDLE

CITY           SKY/WX    TMP DP  RH WIND       PRES   REMARKS
SCOTTSBLUFF    PTCLDY    63  59  87 NE3       30.12F
ALLIANCE       PTCLDY    61  57  87 CALM      30.11F
CHADRON        CLEAR     58  56  93 W5        30.10S
KIMBALL          N/A    N/A N/A N/A MISG        N/A
SIDNEY         MOCLDY    61  59  93 NW7       30.15S
$$

NEZ057>060-069>072-079>082-031000-
SOUTHWEST NEBRASKA

CITY           SKY/WX    TMP DP  RH WIND       PRES   REMARKS
NORTH PLATTE   CLEAR     58  56  93 CALM      30.05S
IMPERIAL       PTCLDY    62  58  86 W3        30.07S
LEXINGTON      FOG       63  62  96 NE5       30.03S VSB 1/4
MCCOOK         PTCLDY    61  58  90 NW3       30.04R
$$

NEZ005>010-023>029-035>040-094-031000-
NORTH CENTRAL NEBRASKA

CITY           SKY/WX    TMP DP  RH WIND       PRES   REMARKS
VALENTINE      PTCLDY    58  57  97 W6        30.04F
AINSWORTH      MOCLDY    61  60  98 CALM      30.04F
BROKEN BOW     FOG       63  62  97 E6        30.04S VSB 3/4
O`NEILL        CLEAR     62  61  99 CALM      30.02F FOG
ORD            CLOUDY    64  60  87 N3        30.01F
$$

NEZ041-046>049-061>064-073>077-083>087-031000-
SOUTH CENTRAL NEBRASKA

CITY           SKY/WX    TMP DP  RH WIND       PRES   REMARKS
GRAND ISLAND   CLOUDY    65  64  97 NE9       30.01S FOG
AURORA         CLOUDY    65  65 100 NE8       30.00S FOG
HASTINGS       CLOUDY    66  64  93 N8        30.00S
KEARNEY *      CLOUDY    63  61  94 NE7       30.02S
$$

NEZ011>018-030>034-042>045-031000-
NORTHEAST NEBRASKA

CITY           SKY/WX    TMP DP  RH WIND       PRES   REMARKS
NORFOLK        CLOUDY    64  62  93 CALM      30.00F FOG
COLUMBUS *     CLOUDY    63  57  82 NE3       29.99F
FREMONT        CLOUDY    63  58  83 E3        29.99F
TEKAMAH        CLEAR     58  56  93 N5        29.99S FOG
$$

NEZ050>053-065>068-078-088>093-031000-
SOUTHEAST NEBRASKA

CITY           SKY/WX    TMP DP  RH WIND       PRES   REMARKS
LINCOLN        CLOUDY    66  62  87 NE9       29.98S
OMAHA EPPLEY   PTCLDY    58  56  93 N5        29.99S
FALLS CITY     CLOUDY    64  60  87 E7        29.94F
$$

NEZ044-045-051>053-067-031000-
OMAHA AREA

CITY           SKY/WX    TMP DP  RH WIND       PRES   REMARKS
OMAHA EPPLEY   PTCLDY    58  56  93 N5        29.99S
FREMONT        CLOUDY    63  58  83 E3        29.99F
MILLARD        CLEAR     61  56  82 CALM      29.98F
OFFUTT AFB     CLEAR     59  55  86 NE2       29.98R
$$



USA.gov is the U.S. government's official web portal to all federal, state and local government web resources and services.